#timestamp,LO_Frequency,Hit,StdDev 
1673557215.8,286046999.2,N
1673557235.7,286046998.5,Y
1673557255.5,286047000.1,P
1673557275.3,286047000.2,N
1673557295.2,286047002.8,P
1673557315.0,286047001.0,N
1673557315.9,286047001.0,N
1673557335.8,286046999.8,N
1673557355.6,286047002.7,N
1673557375.5,286047000.5,N
1673557395.3,286047000.8,N
1673557415.1,286046998.4,N
1673557435.9,286047001.1,N
1673557455.7,286046999.1,N
1673557475.5,286046998.9,N
1673557495.4,286046999.4,N
1673557515.2,286046998.7,N
1673557535.1,286046999.3,N
1673557536.0,286046999.3,N
1673557555.8,286046999.5,N
1673557575.7,286046996.5,N
1673557595.5,286046997.3,N
1673557615.3,286046996.7,N
1673557635.2,286046996.7,N
1673557655.0,286046997.7,N
1673557655.9,286046997.7,N
1673557675.7,286046994.9,Y
1673557695.6,286046997.1,P
1673557715.4,286046997.4,N
1673557735.3,286046997.8,N
1673557755.1,286046997.2,Y
1673557756.0,286046997.2,P
1673557775.8,286046998.6,P
1673557795.7,286046999.4,N
1673557815.5,286046999.1,N
1673557835.3,286046999.0,N
1673557855.2,286046999.6,N
1673557875.0,286046999.6,N
1673557875.9,286046999.6,N
1673557895.8,286046999.1,N
1673557915.6,286046999.4,N
1673557935.4,286046998.2,N
1673557955.3,286046998.6,N
1673557975.1,286046999.0,N
1673557995.9,286046999.4,N
1673558015.7,286046996.5,Y
1673558035.5,286046998.4,P
1673558055.4,286046998.4,P
1673558075.2,286046998.2,P
1673558095.0,286046998.6,Y
1673558096.0,286046998.6,P
1673558115.8,286047000.0,N
1673558135.6,286047000.2,N
1673558155.5,286047000.2,N
1673558175.3,286046998.2,N
1673558195.1,286046998.3,N
1673558215.9,286046999.5,N
1673558235.7,286046999.6,N
1673558255.6,286046997.5,Y
1673558275.4,286046997.2,P
1673558295.2,286046997.7,N
1673558345.1,286046998.7,E
1673558355.0,286046998.2,N
1673558355.9,286046998.2,P
1673558375.8,286047000.5,P
1673558395.6,286046999.9,N
1673558415.5,286047000.7,N
1673558435.3,286047000.9,N
1673558455.1,286047002.8,N
1673558475.9,286046998.6,N
1673558495.7,286046998.2,N
1673558515.5,286046998.2,N
1673558535.4,286047000.6,N
1673558555.2,286047001.1,N
1673558575.1,286047000.2,N
1673558576.0,286047000.2,N
1673558595.8,286046998.1,N
1673558615.6,286047000.7,N
1673558635.5,286047000.9,N
1673558655.3,286047001.2,N
1673558675.2,286047001.0,N
1673558695.9,286047000.5,N
1673558715.7,286047001.2,N
1673558735.6,286047001.0,N
1673558755.4,286047001.2,N
1673558775.2,286047000.9,N
1673558795.1,286046998.2,N
1673558796.0,286046998.2,N
1673558815.8,286047001.1,N
1673558835.7,286046998.1,N
1673558855.5,286046998.6,N
1673558875.3,286046998.3,N
1673558895.2,286046998.7,N
1673558915.0,286046999.4,N
1673558915.9,286046999.4,N
1673558935.8,286046998.9,N
1673558955.6,286046999.2,N
1673558975.4,286046999.6,N
1673558995.3,286046999.2,N
1673559015.1,286046999.5,N
1673559035.8,286046996.9,N
1673559055.7,286046999.0,N
1673559075.5,286046998.9,N
1673559095.4,286046998.3,N
1673559115.2,286046996.8,N
1673559135.0,286046996.5,N
1673559135.9,286046996.5,N
1673559155.8,286046999.0,N
1673559175.6,286046999.1,N
1673559195.4,286046996.7,N
1673559215.3,286046996.7,N
1673559235.1,286046996.8,N
1673559255.9,286046999.6,N
1673559275.7,286046998.4,N
1673559295.5,286046998.3,N
1673559315.4,286046998.8,N
1673559335.2,286046999.2,N
1673559355.0,286046996.7,N
1673559355.9,286046996.7,N
1673559375.8,286046999.4,N
1673559395.6,286046996.6,Y
1673559415.5,286047000.9,P
1673559435.3,286047000.6,N
1673559455.1,286047001.1,N
1673559475.9,286046998.1,N
1673559495.7,286047001.2,N
1673559515.6,286046998.9,N
1673559535.4,286046998.6,N
1673559555.2,286046998.1,N
1673559575.1,286046998.8,N
1673559576.0,286046998.8,N
1673559595.8,286046999.4,N
1673559615.6,286047001.2,N
1673559635.5,286046998.5,N
1673559655.3,286046998.8,N
1673559675.2,286046998.5,N
1673559695.9,286046999.1,N
1673559715.7,286046998.3,N
1673559735.6,286046998.5,N
1673559755.4,286046998.2,N
1673559775.2,286046998.3,N
1673559795.1,286047001.0,N
1673559796.0,286047001.0,N
1673559815.8,286046999.9,N
1673559835.7,286047002.7,N
1673559855.5,286047000.4,N
1673559875.3,286046999.8,N
1673559895.2,286047000.1,N
1673559915.0,286047000.1,N
1673559915.9,286047000.1,N
1673559935.8,286047000.4,N
1673559955.6,286047000.9,N
1673559975.4,286047000.0,N
1673559995.3,286046999.9,N
1673560015.1,286047000.2,N
1673560035.8,286047002.3,N
1673560055.7,286047002.7,N
1673560075.5,286047001.8,N
1673560095.4,286047001.5,N
1673560115.2,286047001.8,N
1673560135.0,286047001.7,N
1673560135.9,286047001.7,N
1673560155.8,286047004.0,N
1673560175.6,286047003.9,N
1673560195.4,286047004.1,N
1673560215.3,286047004.0,N
1673560235.1,286047001.8,N
1673560255.9,286047003.9,N
1673560275.7,286047004.2,N
1673560295.5,286047004.3,N
1673560315.4,286047004.2,N
1673560335.2,286047004.0,N
1673560355.0,286047004.2,N
1673560355.9,286047004.2,N
1673560375.8,286047004.2,N
1673560395.6,286047004.0,N
1673560415.5,286047003.1,N
1673560435.3,286047003.0,N
1673560455.1,286047004.4,N
1673560475.9,286047003.6,N
1673560495.7,286047003.2,N
1673560515.6,286047003.6,N
1673560535.4,286047002.9,N
1673560555.2,286047005.6,Y
1673560575.1,286047001.6,P
1673560576.0,286047001.6,N
1673560595.8,286047002.1,N
1673560615.6,286047000.3,N
1673560635.5,286046999.8,N
1673560655.3,286047002.2,N
1673560675.2,286046999.9,N
1673560695.9,286047000.1,N
1673560715.7,286046999.7,N
1673560735.6,286047002.2,N
1673560755.4,286047002.6,N
1673560775.2,286047002.2,N
1673560795.1,286047002.0,N
1673560796.0,286047002.0,N
